Погода в Мелле

Германия     52°11′58″N   8°20′04″E
темп.,
°C
ветер,
м/с
пор.,
м/с
влажн.,
%
обл.,
%
осадки,
мм/ч
давл.,
гПа
погр.,
м
25 июля, вс
вс2523:00+17ю249889 1.5 1008104
02:00+17юз5895100 1.8 1007423
05:00+16ююз389758 0.0 1008205
08:00+18ююз48900 0.0 1009369
11:00+22ююз457115 0.0 1009875
14:00+24ююз455817 0.3 10091593
17:00+25ююз3451100 0.3 10081501
20:00+23ююз226699 0.3 100841
26 июля, пн
пн2623:00+20ююз23644 0.0 101056
02:00+17ю228181 0.0 101025
05:00+16ю2485100 0.0 101078
08:00+18ю368092 0.0 1011263
11:00+22ююз5665100 0.0 10111227
14:00+24юз695492 0.0 10101916
17:00+23юз685669 0.0 10101617
20:00+21зюз367119 0.1 1011340
27 июля, вт
вт2723:00+17юз388978 0.0 1012230
02:00+15юз37962 0.0 1013179
05:00+14ююз369817 0.0 1013144
08:00+17ююз368631 0.0 1013263
11:00+21юз4567100 0.0 1012927
14:00+24юз465495 0.1 10121824
17:00+24юз355690 0.1 10111438
20:00+17ююз71294100 11.6 1011411
28 июля, ср
ср2823:00+17ююз238766 1.9 101286
02:00+16ююз3893100 1.9 1011291
05:00+15ююз3993100 0.0 1011331
08:00+16ююз510865 0.0 1011475
11:00+19юз7107094 0.1 10111225
14:00+19зюз8117399 0.6 10121131
17:00+20зюз71067100 0.0 10131259
20:00+18зюз487397 0.1 1013571
29 июля, чт
чт2923:00+15ююз228540 0.0 101328
02:00+14ююз24920 0.0 101364
05:00+13ююз38955 0.0 1013168
08:00+15ююз488380 0.0 1012280
11:00+20ююз6105896 0.0 10111067
14:00+23юз7115370 0.0 10092143
17:00+21ююз4959100 0.0 1008760
20:00+19зюз61271100 0.8 1008478